• In Uzbekistan
  • List of Countries
  • For 7 days
  • Water Temperature
  • Satellite Maps
  • Weather Map
  • Weather Widgets
  • user-avatar
    Login

    Hourly Weather Novokubanka

    Today, 23 May, Wednesday

    Time Temperature Precipitation Wind Pressure Humidity
    00:00 +17°C° 0 mm 2 mps 764 mmHg 59%
    01:00 +16°C° 0 mm 2 mps 764 mmHg 61%
    02:00 +16°C° 0 mm 2 mps 763 mmHg 65%
    03:00 +16°C° 0 mm 2 mps 764 mmHg 67%
    04:00 +16°C° 0 mm 2 mps 764 mmHg 70%
    05:00 +16°C° 0 mm 2 mps 764 mmHg 73%
    06:00 +18°C° 0 mm 3 mps 764 mmHg 67%
    07:00 +20°C° 0 mm 3 mps 764 mmHg 62%
    08:00 +22°C° 0 mm 3 mps 764 mmHg 54%
    09:00 +25°C° 0 mm 3 mps 764 mmHg 49%
    10:00 +26°C° 0 mm 2 mps 764 mmHg 44%
    11:00 +27°C° 0 mm 2 mps 764 mmHg 38%
    12:00 +28°C° 0 mm 2 mps 763 mmHg 36%
    13:00 +28°C° 0 mm 2 mps 763 mmHg 34%
    14:00 +29°C° 0 mm 2 mps 762 mmHg 32%
    15:00 +29°C° 0 mm 2 mps 762 mmHg 33%
    16:00 +29°C° 0 mm 2 mps 762 mmHg 33%
    17:00 +29°C° 0 mm 2 mps 761 mmHg 34%
    18:00 +27°C° 0 mm 2 mps 761 mmHg 39%
    19:00 +25°C° 0 mm 2 mps 761 mmHg 44%
    20:00 +23°C° 0 mm 2 mps 761 mmHg 49%
    21:00 +23°C° 0 mm 2 mps 761 mmHg 52%
    22:00 +21°C° 0 mm 2 mps 761 mmHg 55%
    23:00 +21°C° 0 mm 3 mps 761 mmHg 58%

    Tomorrow, 24 May, Thursday

    Time Temperature Precipitation Wind Pressure Humidity
    00:00 +20°C° 0 mm 3 mps 761 mmHg 62%
    01:00 +20°C° 0 mm 3 mps 761 mmHg 66%
    02:00 +19°C° 0 mm 3 mps 761 mmHg 70%
    03:00 +19°C° 0 mm 3 mps 761 mmHg 72%
    04:00 +18°C° 0 mm 3 mps 761 mmHg 74%
    05:00 +18°C° 0 mm 3 mps 761 mmHg 76%
    06:00 +20°C° 0 mm 3 mps 761 mmHg 70%
    07:00 +22°C° 0 mm 3 mps 761 mmHg 63%
    08:00 +24°C° 0 mm 3 mps 761 mmHg 57%
    09:00 +26°C° 0 mm 3 mps 761 mmHg 52%
    10:00 +27°C° 0 mm 3 mps 761 mmHg 47%
    11:00 +28°C° 0 mm 2 mps 760 mmHg 42%
    12:00 +28°C° 0 mm 2 mps 760 mmHg 40%
    13:00 +29°C° 0 mm 2 mps 760 mmHg 39%
    14:00 +29°C° 0 mm 2 mps 759 mmHg 37%
    15:00 +29°C° 0 mm 3 mps 759 mmHg 38%
    16:00 +29°C° 0 mm 3 mps 759 mmHg 39%
    17:00 +28°C° 0 mm 3 mps 758 mmHg 40%
    18:00 +27°C° 0 mm 3 mps 758 mmHg 44%
    19:00 +26°C° 0 mm 3 mps 759 mmHg 49%
    20:00 +24°C° 0 mm 3 mps 759 mmHg 53%
    21:00 +22°C° 0 mm 3 mps 759 mmHg 56%
    22:00 +21°C° 0 mm 3 mps 759 mmHg 60%
    23:00 +20°C° 0 mm 3 mps 759 mmHg 63%

    Day after tomorrow, 25 May, Friday

    Time Temperature Precipitation Wind Pressure Humidity
    00:00 +20°C° 0 mm 3 mps 759 mmHg 67%
    01:00 +19°C° 0 mm 3 mps 759 mmHg 71%
    02:00 +18°C° 0 mm 4 mps 759 mmHg 74%
    03:00 +18°C° 0 mm 4 mps 759 mmHg 77%
    04:00 +18°C° 0 mm 4 mps 759 mmHg 80%
    05:00 +18°C° 0 mm 4 mps 759 mmHg 83%
    06:00 +20°C° 0 mm 4 mps 759 mmHg 77%
    07:00 +21°C° 0 mm 5 mps 759 mmHg 71%
    08:00 +23°C° 0 mm 5 mps 759 mmHg 65%
    09:00 +26°C° 0 mm 5 mps 759 mmHg 60%
    10:00 +27°C° 0 mm 5 mps 759 mmHg 55%
    11:00 +28°C° 0 mm 5 mps 759 mmHg 50%
    12:00 +29°C° 0 mm 5 mps 759 mmHg 49%
    13:00 +29°C° 0 mm 5 mps 759 mmHg 48%
    14:00 +29°C° 0 mm 5 mps 758 mmHg 47%
    15:00 +29°C° 0 mm 5 mps 758 mmHg 49%
    16:00 +29°C° 0 mm 5 mps 758 mmHg 50%
    17:00 +29°C° 0 mm 6 mps 758 mmHg 51%
    18:00 +27°C° 0.1 mm 6 mps 759 mmHg 57%
    19:00 +26°C° 0.1 mm 6 mps 759 mmHg 62%
    20:00 +23°C° 0.1 mm 6 mps 760 mmHg 68%
    21:00 +22°C° 0 mm 6 mps 760 mmHg 71%
    22:00 +22°C° 0 mm 6 mps 760 mmHg 74%
    23:00 +21°C° 0 mm 6 mps 760 mmHg 77%

    26 May, Saturday

    Time Temperature Precipitation Wind Pressure Humidity
    00:00 +20°C° 0 mm 6 mps 761 mmHg 79%
    01:00 +20°C° 0 mm 7 mps 761 mmHg 80%
    02:00 +20°C° 0 mm 7 mps 761 mmHg 82%
    03:00 +18°C° 0 mm 7 mps 762 mmHg 81%
    04:00 +18°C° 0 mm 7 mps 762 mmHg 81%
    05:00 +18°C° 0 mm 8 mps 763 mmHg 80%
    06:00 +18°C° 0 mm 8 mps 763 mmHg 77%
    07:00 +18°C° 0 mm 8 mps 764 mmHg 73%
    08:00 +20°C° 0 mm 8 mps 764 mmHg 69%
    09:00 +21°C° 0 mm 8 mps 764 mmHg 65%
    10:00 +22°C° 0 mm 8 mps 765 mmHg 60%
    11:00 +23°C° 0 mm 8 mps 765 mmHg 55%
    12:00 +23°C° 0 mm 8 mps 765 mmHg 52%
    13:00 +24°C° 0 mm 8 mps 765 mmHg 49%
    14:00 +24°C° 0 mm 7 mps 765 mmHg 46%
    15:00 +24°C° 0 mm 7 mps 765 mmHg 45%
    16:00 +23°C° 0 mm 7 mps 765 mmHg 45%
    17:00 +23°C° 0 mm 7 mps 765 mmHg 44%
    18:00 +21°C° 0 mm 7 mps 766 mmHg 47%
    19:00 +20°C° 0 mm 7 mps 766 mmHg 49%
    20:00 +17°C° 0 mm 7 mps 766 mmHg 51%
    21:00 +16°C° 0 mm 6 mps 767 mmHg 53%
    22:00 +15°C° 0 mm 6 mps 767 mmHg 54%
    23:00 +15°C° 0 mm 6 mps 767 mmHg 56%

    27 May, Sunday

    Time Temperature Precipitation Wind Pressure Humidity
    00:00 +14°C° 0 mm 6 mps 767 mmHg 58%
    01:00 +13°C° 0 mm 6 mps 767 mmHg 60%
    02:00 +13°C° 0 mm 6 mps 767 mmHg 62%
    03:00 +11°C° 0 mm 6 mps 767 mmHg 65%
    04:00 +11°C° 0 mm 6 mps 767 mmHg 67%
    05:00 +10°C° 0 mm 6 mps 768 mmHg 69%
    06:00 +13°C° 0 mm 6 mps 768 mmHg 64%
    07:00 +14°C° 0 mm 7 mps 768 mmHg 58%
    08:00 +16°C° 0 mm 7 mps 768 mmHg 53%
    09:00 +17°C° 0 mm 7 mps 768 mmHg 48%
    10:00 +18°C° 0 mm 7 mps 768 mmHg 44%
    11:00 +20°C° 0 mm 7 mps 767 mmHg 40%
    12:00 +21°C° 0 mm 7 mps 767 mmHg 39%
    13:00 +22°C° 0 mm 7 mps 767 mmHg 38%
    14:00 +22°C° 0 mm 6 mps 766 mmHg 36%
    15:00 +22°C° 0 mm 6 mps 766 mmHg 37%
    16:00 +22°C° 0 mm 6 mps 766 mmHg 38%
    17:00 +22°C° 0 mm 6 mps 766 mmHg 39%
    18:00 +21°C° 0 mm 5 mps 766 mmHg 43%
    19:00 +19°C° 0 mm 5 mps 766 mmHg 47%
    20:00 +17°C° 0 mm 4 mps 766 mmHg 52%
    21:00 +17°C° 0 mm 4 mps 766 mmHg 54%
    22:00 +15°C° 0 mm 4 mps 766 mmHg 56%
    23:00 +14°C° 0 mm 4 mps 766 mmHg 59%

    28 May, Monday

    Time Temperature Precipitation Wind Pressure Humidity
    00:00 +14°C° 0 mm 4 mps 766 mmHg 62%
    01:00 +13°C° 0 mm 5 mps 765 mmHg 65%
    02:00 +12°C° 0 mm 5 mps 765 mmHg 68%
    03:00 +12°C° 0 mm 5 mps 765 mmHg 70%
    04:00 +12°C° 0 mm 5 mps 765 mmHg 72%
    05:00 +12°C° 0 mm 5 mps 765 mmHg 74%
    06:00 +14°C° 0 mm 6 mps 765 mmHg 66%
    07:00 +16°C° 0 mm 6 mps 765 mmHg 59%
    08:00 +18°C° 0 mm 7 mps 765 mmHg 51%
    09:00 +20°C° 0 mm 7 mps 765 mmHg 46%
    10:00 +22°C° 0 mm 6 mps 765 mmHg 42%
    11:00 +23°C° 0 mm 6 mps 765 mmHg 37%
    12:00 +24°C° 0 mm 6 mps 764 mmHg 37%
    13:00 +26°C° 0 mm 6 mps 764 mmHg 36%
    14:00 +27°C° 0 mm 5 mps 763 mmHg 35%
    15:00 +27°C° 0 mm 5 mps 763 mmHg 36%
    16:00 +27°C° 0 mm 5 mps 763 mmHg 37%
    17:00 +27°C° 0 mm 5 mps 763 mmHg 38%
    18:00 +25°C° 0 mm 5 mps 762 mmHg 44%
    19:00 +22°C° 0 mm 5 mps 762 mmHg 50%
    20:00 +20°C° 0 mm 4 mps 762 mmHg 56%
    21:00 +20°C° 0 mm 4 mps 762 mmHg 59%
    22:00 +19°C° 0 mm 4 mps 762 mmHg 62%
    23:00 +18°C° 0 mm 4 mps 762 mmHg 65%
    Show more